Location: Niedergestelen
(46.3129°N, 7.7822°E)
Time: 05:51:17
(UTC+00:00)

NOSS 3-2 (A) - Pass Details

Date: 01 December 2020
Orbit: 791 x 1417 km, 63.4° (Epoch: 20 December)

Event Time Altitude Azimuth Distance (km) Brightness Sun altitude
Rises 18:32:57 0° 225° (SW) 3,349 7.0 -28.4°
Reaches altitude 10° 18:35:17 10° 228° (SW) 2,466 6.2 -28.8°
Maximum altitude 18:40:57 71° 312° (NW) 974 3.5 -29.8°
Enters shadow 18:41:25 68° 345° (NNW) 1,000 3.5 -29.9°
